Regional Weather Roundup
Issued by NWS Cleveland, OH

Home | Current Version | Previous Version | Graphics & Text | Print | Product List | Glossary On
Versions: 1 2 3 4 5 6 7 8 9 10 11 12 13 14 15 16 17 18 19 20 21 22 23 24 25 26 27 28 29 30 31 32 33 34 35 36 37 38 39 40 41 42 43 44 45 46 47 48 49 50
000
ASUS41 KCLE 302210
RWRCLE
OHIO REGIONAL WEATHER ROUNDUP
NATIONAL WEATHER SERVICE CLEVELAND, OH
600 PM EDT SAT AUG 30 2014

NOTE: "FAIR" INDICATES FEW OR NO CLOUDS BELOW 12,000 FEET WITH NO
SIGNIFICANT WEATHER AND/OR OBSTRUCTIONS TO VISIBILITY.

OHZ001>008-015>018-024>027-034-035-043-044-302300-
   NORTHWEST OHIO

CITY           SKY/WX    TMP DP  RH WIND       PRES   REMARKS
DEFIANCE       MOSUNNY   82  68  62 SW16G24   29.91F
FINDLAY        MOSUNNY   80  67  64 S21       29.94F
TOLEDO EXPRESS MOSUNNY   84  67  56 SW12G25   29.90F
TOLEDO EXEC    PTSUNNY   84  66  54 SW20G26   29.91F
LIMA           MOSUNNY   80  69  69 S15       29.97S
$$

OHZ009>014-019>023-028>033-038-089-302300-
   NORTHEAST OHIO

CITY           SKY/WX    TMP DP  RH WIND       PRES   REMARKS
CLE-HOPKINS    PTSUNNY   85  65  51 SW15      29.96F
CLE-LAKEFRONT  CLOUDY    88  64  44 S14G20    29.91F
CUY CO. ARPT   PTSUNNY   86  68  54 SW12      29.96F
LORAIN-ELYRIA  PTSUNNY   88  66  48 SW16      29.96F HX  90
ASHTABULA      PTSUNNY   84  66  54 S8        29.98F
AKRON-CANTON   PTSUNNY   87  65  47 SW13G22   29.99F
WOOSTER        MOSUNNY   84  67  56 S8        29.99F
MANSFIELD      PTSUNNY   84  65  52 SW14G28   30.00F
YOUNGSTOWN     PTSUNNY   85  64  49 SW10      30.01F
$$

OHZ042-051>053-060>062-070>072-077>081-302300-
  SOUTHWEST OHIO

CITY           SKY/WX    TMP DP  RH WIND       PRES   REMARKS
CINC-COVINGTON LGT RAIN  75  70  84 S9        30.04R
CINC-LUNKEN    LGT RAIN  74  71  91 S10G23    30.04R FOG
HAMILTON       CLOUDY    81  71  71 S5        30.01S
DAYTON         PTSUNNY   82  68  62 SW10      30.01F
WRIGHT-PAT AFB PTSUNNY   83  69  61 S10       30.00S
DAYTON GENERAL PTSUNNY   83  68  60 SW8       30.01R
WILMINGTON     LGT RAIN  77  68  73 S8        30.02R
$$

OHZ036-037-039>041-045>050-054>059-063>069-073>076-082>088-302300-
  CENTRAL AND SOUTHEAST OHIO

CITY           SKY/WX    TMP DP  RH WIND       PRES   REMARKS
COLUMBUS       PTSUNNY   90  65  43 SW14      29.99F HX  92
OSU AIRPORT    MOSUNNY   86  66  51 SW16G22   30.00S
BOLTON FIELD   PTSUNNY   82  72  69 SW8       30.01F
RICKENBACK AFB PTSUNNY   88  59  37 SW12      29.99S
NEWARK         MOSUNNY   85  67  54 SW7       29.99F
MARION         MOSUNNY   82  68  62 SW12      29.99F
LANCASTER      MOSUNNY   85  65  51 S7        30.01S
ZANESVILLE     SUNNY     87  65  47 S8        30.01F
NEW PHILLY     SUNNY     85  68  56 S7        30.01F
$$



USA.gov is the U.S. government's official web portal to all federal, state and local government web resources and services.